Location: Nelson
(47.1935°N, 121.0537°W)
Time: 06:16:50
(UTC+00:00)

BlueWalker 3 - Pass Details

Date: 04 December 2022
Orbit: 499 x 517 km, 53.2° (Epoch: 27 January)

Event Time Altitude Azimuth Distance (km) Brightness Sun altitude
Rises 00:57:29 0° 278° (W) 2,637 6.7 -7.1°
Reaches altitude 10° 00:59:50 10° 287° (WNW) 1,747 5.5 -7.4°
Maximum altitude 01:03:28 34° 354° (N) 862 3.0 -8.0°
Enters shadow 01:06:53 11° 60° (ENE) 1,663 3.9 -8.5°
